Regional Weather Roundup
Issued by NWS

Home | Current Version | Previous Version | Text Only | Print | Product List | Glossary On
Versions: 1 2 3 4 5 6 7 8 9 10 11 12 13 14 15 16 17 18 19 20 21 22 23 24 25 26
000
ASCA42 TJSJ 131910
RWRPR
PUERTO RICO/U.S. VIRGIN ISLANDS HOURLY WEATHER ROUNDUP
NATIONAL WEATHER SERVICE SAN JUAN PR
300 PM AST WED DEC 13 2017

PRZ001>002-007>008-010-132000-
PUERTO RICO

CITY           SKY/WX    TMP DP  RH WIND       PRES   REMARKS
SAN JUAN LMM   MOSUNNY   86  73  66 SE7       29.93F HX  93
AGUADILLA      PTSUNNY   82  73  74 S5        29.96F
$$

VIZ001>002-132000-
U.S. VIRGIN ISLANDS

CITY           SKY/WX    TMP DP  RH WIND       PRES   REMARKS
CHARLOTTE AMA  SUNNY     84  75  74 SE8       29.95F HX  92
CHRISTIANSTED  MOSUNNY   84  73  70 SE7       29.97F HX  91
$$

HOURLY WEATHER ROUNDUP FOR THE NEWS MEDIA

CITY           SKY/WX    TMP DP  RH WIND       PRES   REMARKS
ORLANDO        SUNNY     61  22  22 NW8       30.05F
NEW YORK       MOSUNNY   32   2  27 W29G36    29.57R WCI  18
NEWARK         MOSUNNY   33   2  26 W24G37    29.58R WCI  20
CHICAGO        CLOUDY    36  23  59 SW15      29.27F WCI  27
HARTFORD       PTSUNNY   24   8  50 W25G36    29.35R WCI   8
BOSTON         MOSUNNY   25   8  48 W28G35    29.30R WCI   9
DALLAS         MOSUNNY   69  27  20 SW7       29.95F
PHILADELPHIA   MOSUNNY   31   4  31 W22G31    29.70S WCI  18
LOS ANGELES    MOSUNNY   78  11   8 CALM      30.00F
WASHINGTON DC  MOSUNNY   32   8  36 W9G16     29.78F WCI  24



USA.gov is the U.S. government's official web portal to all federal, state and local government web resources and services.